This is the latest recevied weather packets stored in our database for station/object KE0LFX. If no packets are shown the sender has not sent any weather packets the latest 10 day(s).
| Time | Temp. | Humidity | Pressure | Rain* | Wind** | Luminosity | Snow |
|---|---|---|---|---|---|---|---|
| 1777490933 | 13.89° C | 37% | 1021.5 hPa | 0 mm | - | 306 W/m² | - |
| 1777490629 | 13.33° C | 39% | 1021.5 hPa | 0 mm | - | 103 W/m² | - |
| 1777490324 | 13.89° C | 38% | 1021.6 hPa | 0 mm | - | 71 W/m² | - |
| 1777490023 | 13.89° C | 37% | 1021.7 hPa | 0 mm | - | 674 W/m² | - |
| 1777489720 | 13.33° C | 37% | 1021.6 hPa | 0 mm | - | 670 W/m² | - |
| 1777489417 | 13.33° C | 36% | 1021.6 hPa | 0 mm | - | 507 W/m² | - |
| 1777489114 | 13.33° C | 37% | 1021.5 hPa | 0 mm | - | 673 W/m² | - |
| 1777488811 | 13.33° C | 37% | 1021.6 hPa | 0 mm | - | 447 W/m² | - |
| 1777488509 | 13.33° C | 37% | 1021.6 hPa | 0 mm | - | 75 W/m² | - |
| 1777488206 | 13.89° C | 38% | 1021.6 hPa | 0 mm | - | 743 W/m² | - |
| 1777487904 | 13.89° C | 38% | 1021.6 hPa | 0 mm | - | 747 W/m² | - |
| 1777487601 | 13.33° C | 38% | 1021.8 hPa | 0 mm | - | 776 W/m² | - |
| 1777487299 | 13.33° C | 39% | 1021.7 hPa | 0 mm | - | 768 W/m² | - |
| 1777486996 | 13.33° C | 38% | 1021.6 hPa | 0 mm | - | 767 W/m² | - |
| 1777486692 | 13.33° C | 38% | 1021.6 hPa | 0 mm | - | 757 W/m² | - |
| 1777486390 | 13.33° C | 40% | 1021.6 hPa | 0 mm | - | 721 W/m² | - |
| 1777486087 | 13.33° C | 41% | 1021.8 hPa | 0 mm | - | 698 W/m² | - |
| 1777485783 | 13.33° C | 40% | 1021.8 hPa | 0 mm | - | 693 W/m² | - |
| 1777485479 | 13.33° C | 42% | 1021.9 hPa | 0 mm | - | 138 W/m² | - |
| 1777485175 | 12.78° C | 43% | 1021.7 hPa | 0 mm | - | 90 W/m² | - |
| 1777484872 | 12.78° C | 44% | 1021.9 hPa | 0 mm | - | 76 W/m² | - |
| 1777484569 | 12.78° C | 44% | 1022 hPa | 0 mm | - | 598 W/m² | - |
| 1777484265 | 12.78° C | 43% | 1021.8 hPa | 0 mm | - | 610 W/m² | - |
| 1777483961 | 12.22° C | 45% | 1021.9 hPa | 0 mm | - | 118 W/m² | - |
| 1777483658 | 12.78° C | 45% | 1022.1 hPa | 0 mm | - | 69 W/m² | - |
* Rain latest hour (hover to see other rain measurements)
** Current wind speed in m/s (hover to see current wind gust speed)